CW9009 Weather Reports


Display with metric or nautical units.
time (UTC)temp
F
wind
direction
speed
MPH
gust
MPH
rain 1hr
in
rain 24hr
in
rain mn
in
humidity
%
barometer
mb
20260902061418 67 0.0 0.0 0.00 0.01 0.00 69 1007.4
20260902060418 67 0.0 0.0 0.00 0.01 0.00 69 1007.4
20260902055418 67 0.0 0.0 0.00 0.01 0.01 70 1007.4
20260902054418 68 0.0 0.0 0.00 0.01 0.01 70 1007.3
20260902053419 69 0 0.0 0.0 0.00 0.01 0.01 64 1007.5
20260902052419 70 106 0.0 2.0 0.00 0.01 0.01 63 1007.5
20260902051419 70 0.0 0.0 0.00 0.01 0.01 63 1007.4
20260902050419 71 0.0 0.0 0.00 0.01 0.01 60 1007.4
20260902045419 71 294 1.0 1.0 0.00 0.01 0.01 58 1007.3
20260902044419 71 0.0 0.0 0.00 0.01 0.01 60 1007.3
20260902043419 72 0.0 0.0 0.00 0.01 0.01 60 1007.2
20260902042440 72 0.0 0.0 0.00 0.01 0.01 59 1007.2
20260902041420 73 0.0 0.0 0.00 0.01 0.01 59 1007.2
20260902040420 73 0.0 0.0 0.00 0.01 0.01 58 1007.2
20260902035420 74 0.0 0.0 0.00 0.01 0.01 58 1007.2
20260902034441 75 0.0 0.0 0.00 0.01 0.01 57 1007.2
20260902033501 75 0.0 0.0 0.00 0.01 0.01 55 1007.2
20260902032421 76 0.0 0.0 0.00 0.01 0.01 53 1007.1
20260902031421 77 0.0 0.0 0.00 0.01 0.01 52 1007.1
20260902030421 77 0.0 0.0 0.00 0.01 0.01 52 1007.1
20260902025421 78 0.0 0.0 0.00 0.01 0.01 50 1007.1
20260902024602 78 0.0 0.0 0.00 0.01 0.01 50 1007.0
20260902023421 79 0.0 0.0 0.00 0.01 0.01 49 1007.0
20260902022442 80 0.0 0.0 0.00 0.01 0.01 47 1007.1
20260902021422 80 0.0 0.0 0.00 0.01 0.01 47 1007.1
20260902020442 81 0.0 0.0 0.00 0.01 0.01 47 1007.0
20260902015443 82 0.0 0.0 0.00 0.01 0.01 47 1007.0
20260902014423 82 0.0 0.0 0.00 0.01 0.01 47 1007.0
20260902013423 82 0.0 0.0 0.00 0.01 0.01 47 1007.2
20260902012423 83 0 0.0 0.0 0.00 0.01 0.01 47 1007.2
20260902011424 83 0 0.0 0.0 0.00 0.01 0.01 45 1007.2
20260902010423 84 303 1.0 1.0 0.00 0.01 0.01 44 1007.2
20260902005423 84 311 1.0 1.0 0.00 0.01 0.01 44 1007.2
20260902004424 84 296 1.0 2.0 0.00 0.01 0.01 43 1007.3
20260902003423 85 0.0 0.0 0.00 0.01 0.01 43 1007.2
20260902002525 85 304 1.0 2.0 0.00 0.01 0.01 42 1007.1
20260902001424 86 301 1.0 2.0 0.00 0.01 0.01 42 1007.2
20260902000424 86 309 1.0 2.0 0.00 0.01 0.01 40 1007.2
20260901235424 86 273 2.0 3.0 0.00 0.01 0.01 42 1007.2
20260901234445 86 284 1.0 2.0 0.00 0.01 0.01 43 1007.2
20260901233425 86 301 1.0 2.0 0.00 0.01 0.01 44 1007.3
20260901232425 87 314 1.0 2.0 0.00 0.01 0.01 45 1007.4
20260901231425 86 270 1.0 1.0 0.00 0.01 0.01 44 1007.5
20260901230425 86 262 1.0 2.0 0.00 0.01 0.01 43 1007.8
20260901225425 87 290 1.0 3.0 0.00 0.01 0.01 42 1008.0
20260901224425 87 0.0 0.0 0.00 0.01 0.01 43 1008.1
20260901223446 87 295 1.0 2.0 0.00 0.01 0.01 44 1008.2
20260901222426 86 0.0 0.0 0.00 0.01 0.01 45 1008.2
20260901221426 86 0.0 0.0 0.00 0.01 0.01 45 1008.3
20260901220426 86 292 1.0 2.0 0.00 0.01 0.01 47 1008.5
20260901215427 85 295 1.0 1.0 0.00 0.01 0.01 47 1008.7
20260901214427 85 266 1.0 2.0 0.00 0.01 0.01 45 1008.7
20260901213447 85 253 0.0 1.0 0.00 0.01 0.01 45 1009.0
20260901212427 85 0.0 0.0 0.00 0.01 0.01 48 1009.1
20260901211427 84 0.0 0.0 0.00 0.01 0.01 49 1009.2
20260901210427 84 0.0 0.0 0.00 0.01 0.01 48 1009.4
20260901205427 83 0.0 0.0 0.00 0.01 0.01 49 1009.5
20260901204447 83 0.0 0.0 0.00 0.01 0.01 49 1009.6
20260901203428 82 285 1.0 1.0 0.00 0.01 0.01 47 1009.7
20260901202428 81 0.0 0.0 0.00 0.01 0.01 48 1009.8
20260901201428 81 0.0 0.0 0.00 0.01 0.01 48 1010.0
20260901200448 81 311 0.0 0.0 0.00 0.01 0.01 47 1010.0
20260901195449 80 267 1.0 2.0 0.00 0.01 0.01 47 1010.3
20260901194549 80 304 1.0 2.0 0.00 0.01 0.01 52 1010.3
20260901193449 80 0 0.0 0.0 0.00 0.01 0.01 54 1010.4
20260901192429 79 0.0 0.0 0.00 0.01 0.01 55 1010.6
20260901191429 78 0.0 0.0 0.01 0.01 0.01 60 1010.9
20260901190449 77 189 0.0 1.0 0.01 0.01 0.01 60 1011.1
20260901185429 77 269 1.0 2.0 0.01 0.01 0.01 62 1011.2
20260901184430 77 0 0.0 0.0 0.01 0.01 0.01 62 1011.2
20260901183430 77 276 2.0 3.0 0.01 0.01 0.01 62 1011.1
20260901182430 77 0 0.0 0.0 0.01 0.01 0.01 63 1011.0
20260901181430 77 224 1.0 2.0 0.00 0.00 0.00 60 1010.9
20260901180430 77 286 2.0 3.0 0.00 0.00 0.00 60 1010.7
20260901175430 77 292 1.0 2.0 0.00 0.00 0.00 59 1010.7
20260901174431 77 264 2.0 3.0 0.00 0.00 0.00 60 1010.7
20260901173431 76 281 3.0 4.0 0.00 0.00 0.00 60 1010.7
20260901172431 76 256 4.0 6.0 0.00 0.00 0.00 62 1010.7
20260901171432 76 294 1.0 1.0 0.00 0.00 0.00 62 1010.8
20260901170432 76 0 0.0 1.0 0.00 0.00 0.00 60 1010.9
20260901165432 76 280 2.0 3.0 0.00 0.00 0.00 59 1010.9
20260901164432 77 103 2.0 3.0 0.00 0.00 0.00 55 1010.8
20260901163432 77 0.0 0.0 0.00 0.00 0.00 57 1010.8
20260901162417 76 62 2.0 3.0 0.00 0.00 0.00 55 1010.8
20260901161418 76 31 3.0 4.0 0.00 0.00 0.00 55 1010.8
20260901160437 76 89 3.0 4.0 0.00 0.00 0.00 57 1010.6
20260901155418 75 92 4.0 5.0 0.00 0.00 0.00 58 1010.6
20260901154418 74 68 2.0 3.0 0.00 0.00 0.00 59 1010.6
20260901153438 73 76 2.0 3.0 0.00 0.00 0.00 60 1010.6
20260901152438 71 122 3.0 3.0 0.00 0.00 0.00 63 1010.4
20260901151438 69 66 2.0 2.0 0.00 0.00 0.00 67 1010.4
20260901150419 67 57 1.0 3.0 0.00 0.00 0.00 69 1010.4
20260901145419 66 182 0.0 2.0 0.00 0.00 0.00 69 1010.5
20260901144419 65 179 1.0 2.0 0.00 0.00 0.00 69 1010.5
20260901143419 65 14 1.0 2.0 0.00 0.00 0.00 68 1010.4
20260901142420 64 343 1.0 2.0 0.00 0.00 0.00 68 1010.3
20260901141419 64 80 1.0 1.0 0.00 0.00 0.00 68 1010.1
20260901140420 64 0 0.0 0.0 0.00 0.00 0.00 69 1010.1
20260901135420 64 51 0.0 1.0 0.00 0.00 0.00 68 1010.1
20260901134420 64 63 1.0 1.0 0.00 0.00 0.00 67 1010.1
20260901133420 64 0.0 0.0 0.00 0.00 0.00 65 1010.1
20260901132420 64 80 1.0 2.0 0.00 0.00 0.00 64 1010.0
20260901131420 64 0.0 0.0 0.00 0.00 0.00 64 1010.0
20260901130421 64 280 0.0 1.0 0.00 0.00 0.00 67 1009.9
20260901125421 64 0.0 0.0 0.00 0.00 0.00 68 1009.9
20260901124421 64 0.0 0.0 0.00 0.00 0.00 65 1009.9
20260901123421 64 0.0 0.0 0.00 0.00 0.00 64 1009.8
20260901122421 64 107 1.0 2.0 0.00 0.00 0.00 65 1009.9
20260901121421 65 0.0 0.0 0.00 0.00 0.00 64 1009.7
20260901120421 64 0.0 0.0 0.00 0.00 0.00 63 1009.8
20260901115422 64 289 1.0 2.0 0.00 0.00 0.00 64 1009.8
20260901114422 65 0.0 0.0 0.00 0.00 0.00 64 1009.6
20260901113422 65 0 0.0 0.0 0.00 0.00 0.00 62 1009.4
20260901112422 65 0.0 0.0 0.00 0.00 0.00 64 1009.4
20260901111443 65 0.0 0.0 0.00 0.00 0.00 63 1009.3
20260901110423 65 96 1.0 2.0 0.00 0.00 0.00 55 1009.2
20260901105423 65 190 0.0 0.0 0.00 0.00 0.00 55 1009.1
20260901104443 65 64 0.0 2.0 0.00 0.00 0.00 54 1009.1
20260901103423 65 286 0.0 1.0 0.00 0.00 0.00 53 1008.8
20260901102423 65 0 0.0 0.0 0.00 0.00 0.00 52 1008.6
20260901101444 66 0.0 0.0 0.00 0.00 0.00 50 1008.7
20260901100424 67 0.0 0.0 0.00 0.00 0.00 49 1008.6
20260901095424 67 179 0.0 0.0 0.00 0.00 0.00 47 1008.6
20260901094425 67 173 1.0 2.0 0.00 0.00 0.00 47 1008.6
20260901093444 66 123 2.0 2.0 0.00 0.00 0.00 47 1008.8
20260901092424 66 110 1.0 2.0 0.00 0.00 0.00 47 1008.8
20260901091424 66 88 1.0 2.0 0.00 0.00 0.00 47 1009.1
20260901090425 65 0 0.0 0.0 0.00 0.00 0.00 48 1009.2
20260901085425 65 0.0 0.0 0.00 0.00 0.00 48 1009.2
20260901084425 65 0 0.0 0.0 0.00 0.00 0.00 49 1009.3
20260901083425 65 116 1.0 2.0 0.00 0.00 0.00 50 1009.4
20260901082425 65 0 0.0 0.0 0.00 0.00 0.00 52 1009.4
20260901081445 65 109 2.0 2.0 0.00 0.00 0.00 50 1009.6
20260901080426 65 0.0 0.0 0.00 0.00 0.00 50 1009.7
20260901075446 65 0.0 0.0 0.00 0.00 0.00 49 1009.6
20260901074426 65 74 0.0 1.0 0.00 0.00 0.00 50 1009.7
20260901073426 65 0.0 0.0 0.00 0.00 0.00 52 1009.7
20260901072426 65 0.0 0.0 0.00 0.00 0.00 48 1009.7
20260901071447 65 0.0 0.0 0.00 0.00 0.00 52 1009.7
20260901070427 64 0.0 0.0 0.00 0.00 0.00 54 1009.7
20260901065427 65 0.0 0.0 0.00 0.00 0.00 57 1009.8
20260901064427 65 0.0 0.0 0.00 0.00 0.00 55 1009.7
20260901063427 65 0.0 0.0 0.00 0.00 0.00 55 1009.7
20260901062427 66 0.0 0.0 0.00 0.00 0.00 60 1009.8